TimeMDT,TemperatureF,Dew PointF,Humidity,Sea Level PressureIn,VisibilityMPH,Wind Direction,Wind SpeedMPH,Gust SpeedMPH,PrecipitationIn,Events,Conditions,WindDirDegrees,DateUTC
12:46 AM,39.2,33.8,81,29.74,10.0,WNW,15.0,23.0,N/A,,Overcast,290,2013-04-06 06:46:00
12:53 AM,39.9,33.1,77,29.63,10.0,WNW,13.8,26.5,N/A,,Overcast,290,2013-04-06 06:53:00
1:06 AM,41.0,32.0,70,29.75,10.0,WNW,10.4,23.0,N/A,,Mostly Cloudy,300,2013-04-06 07:06:00
1:53 AM,39.9,32.0,73,29.66,10.0,NW,6.9,-,N/A,,Overcast,310,2013-04-06 07:53:00
2:53 AM,39.0,34.0,82,29.66,10.0,WNW,12.7,21.9,0.00,Rain,Light Rain,290,2013-04-06 08:53:00
3:53 AM,39.9,33.1,77,29.66,10.0,WNW,16.1,23.0,N/A,,Mostly Cloudy,290,2013-04-06 09:53:00
4:53 AM,39.9,32.0,73,29.67,10.0,WNW,11.5,27.6,N/A,,Clear,290,2013-04-06 10:53:00
5:53 AM,39.0,30.0,70,29.71,10.0,WNW,5.8,-,N/A,,Clear,300,2013-04-06 11:53:00
6:53 AM,39.0,27.0,62,29.72,10.0,West,12.7,19.6,N/A,,Clear,280,2013-04-06 12:53:00
7:53 AM,43.0,28.0,56,29.75,10.0,NNW,8.1,20.7,N/A,,Clear,340,2013-04-06 13:53:00
8:53 AM,45.0,28.0,52,29.75,10.0,NNW,8.1,18.4,N/A,,Clear,340,2013-04-06 14:53:00
9:53 AM,50.0,24.1,36,29.75,10.0,WNW,12.7,28.8,N/A,,Clear,300,2013-04-06 15:53:00
10:53 AM,51.1,21.9,32,29.78,10.0,WNW,16.1,26.5,N/A,,Clear,300,2013-04-06 16:53:00
11:53 AM,52.0,24.1,34,29.76,10.0,WNW,12.7,32.2,N/A,,Clear,300,2013-04-06 17:53:00
12:53 PM,54.0,24.1,31,29.76,10.0,WNW,9.2,29.9,N/A,,Scattered Clouds,290,2013-04-06 18:53:00
1:53 PM,51.1,23.0,33,29.77,10.0,West,20.7,35.7,N/A,,Mostly Cloudy,280,2013-04-06 19:53:00
2:53 PM,52.0,21.0,30,29.75,10.0,West,13.8,29.9,N/A,,Partly Cloudy,270,2013-04-06 20:53:00
3:53 PM,54.0,25.0,33,29.74,10.0,West,12.7,24.2,N/A,,Clear,270,2013-04-06 21:53:00
4:53 PM,52.0,23.0,32,29.75,10.0,West,13.8,20.7,N/A,,Scattered Clouds,270,2013-04-06 22:53:00
5:53 PM,51.1,23.0,33,29.76,10.0,Variable,5.8,-,N/A,,Clear,0,2013-04-06 23:53:00
6:53 PM,50.0,21.9,33,29.77,10.0,WNW,5.8,-,N/A,,Overcast,290,2013-04-07 00:53:00
7:53 PM,48.0,21.9,36,29.77,10.0,Calm,Calm,-,N/A,,Overcast,0,2013-04-07 01:53:00
8:53 PM,45.0,21.9,40,29.78,10.0,Calm,Calm,-,N/A,,Overcast,0,2013-04-07 02:53:00
9:53 PM,43.0,24.1,47,29.77,10.0,Calm,Calm,-,N/A,,Partly Cloudy,0,2013-04-07 03:53:00
10:53 PM,39.0,24.1,55,29.77,10.0,Calm,Calm,-,N/A,,Partly Cloudy,0,2013-04-07 04:53:00
11:53 PM,36.0,23.0,59,29.77,10.0,Calm,Calm,-,N/A,,Clear,0,2013-04-07 05:53:00